Location: Unspecified
(20.0000°S, 0.0000°E)
Time: 10:12:33
(UTC+00:00)

NUDT-PHONESAT - Pass Details

Date: 28 July 2019
Orbit: 489 x 505 km, 97.4° (Epoch: 20 August)

Event Time Altitude Azimuth Distance (km) Brightness Sun altitude
Rises 05:12:35 0° 40° (NE) 2,586 ? -18.6°
Reaches altitude 10° 05:15:04 10° 58° (ENE) 1,712 ? -18.0°
Maximum altitude 05:17:47 20° 105° (ESE) 1,230 ? -17.4°
Drops below altitude 10° 05:20:31 10° 153° (SSE) 1,732 ? -16.8°
Sets 05:23:02 0° 170° (S) 2,626 ? -16.2°
